EA1AY-13 Weather Reports


Display with metric or nautical units.
time (UTC)temp
F
wind
direction
speed
MPH
gust
MPH
rain 1hr
in
rain 24hr
in
rain mn
in
humidity
%
barometer
mb
20260831032538 64 135 1.0 2.0 0.00 0.00 0.00 82 1022.6
20260831031517 64 0.0 2.0 0.00 0.00 0.00 82 1022.6
20260831030517 65 135 1.0 3.0 0.00 0.00 0.00 83 1022.7
20260831025517 65 0.0 0.0 0.00 0.00 0.00 83 1022.7
20260831024538 65 0.0 0.0 0.00 0.00 0.00 83 1022.8
20260831023517 65 135 1.0 3.0 0.00 0.00 0.00 83 1022.8
20260831022517 65 135 1.0 3.0 0.00 0.00 0.00 82 1022.8
20260831021517 65 0.0 0.0 0.00 0.00 0.00 82 1022.7
20260831020517 65 0.0 0.0 0.00 0.00 0.00 82 1022.7
20260831015517 65 0.0 0.0 0.00 0.00 0.00 82 1022.5
20260831014517 65 0.0 0.0 0.00 0.00 0.00 82 1022.5
20260831013538 65 135 1.0 3.0 0.00 0.00 0.00 83 1022.5
20260831012517 65 0.0 0.0 0.00 0.00 0.00 83 1022.5
20260831011518 65 135 1.0 4.0 0.00 0.00 0.00 83 1022.4
20260831010517 66 135 1.0 4.0 0.00 0.00 0.00 83 1022.5
20260831005537 66 0.0 3.0 0.00 0.00 0.00 83 1022.5
20260831004517 66 135 1.0 5.0 0.00 0.00 0.00 83 1022.6
20260831003517 66 135 1.0 4.0 0.00 0.00 0.00 83 1022.6
20260831002517 66 135 1.0 4.0 0.00 0.00 0.00 83 1022.7
20260831001517 66 135 2.0 5.0 0.00 0.00 0.00 83 1022.7
20260831000618 66 135 1.0 5.0 0.00 0.00 0.00 83 1022.7
20260830235517 66 135 2.0 5.0 0.00 0.00 0.00 83 1022.7
20260830234517 66 135 1.0 5.0 0.00 0.00 0.00 82 1022.8
20260830233517 66 135 3.0 7.0 0.00 0.00 0.00 83 1022.7
20260830232538 66 135 2.0 5.0 0.00 0.00 0.00 83 1022.7
20260830231517 66 135 2.0 4.0 0.00 0.00 0.00 82 1022.7
20260830230518 66 135 2.0 5.0 0.00 0.00 0.00 82 1022.7
20260830225518 67 135 1.0 4.0 0.00 0.00 0.00 82 1022.8
20260830224517 67 135 2.0 6.0 0.00 0.00 0.00 82 1022.8
20260830223517 66 135 2.0 5.0 0.00 0.00 0.00 82 1022.8
20260830222538 67 135 1.0 6.0 0.00 0.00 0.00 82 1022.8
20260830221537 67 0.0 2.0 0.00 0.00 0.00 82 1022.7
20260830220517 67 135 1.0 4.0 0.00 0.00 0.00 82 1022.7
20260830215517 67 135 2.0 5.0 0.00 0.00 0.00 82 1022.5
20260830214516 67 135 1.0 6.0 0.00 0.00 0.00 81 1022.5
20260830213536 67 135 2.0 5.0 0.00 0.00 0.00 81 1022.6
20260830212516 67 135 2.0 6.0 0.00 0.00 0.00 81 1022.4
20260830211516 67 135 2.0 8.0 0.00 0.00 0.00 81 1022.4
20260830210517 67 135 3.0 7.0 0.00 0.00 0.00 81 1022.3
20260830205516 67 135 4.0 7.0 0.00 0.00 0.00 81 1022.2
20260830204516 67 135 4.0 8.0 0.00 0.00 0.00 81 1022.2
20260830203517 67 135 5.0 8.0 0.00 0.00 0.00 81 1022.0
20260830202516 68 135 4.0 7.0 0.00 0.00 0.00 80 1022.0
20260830201517 68 135 3.0 8.0 0.00 0.00 0.00 80 1021.8
20260830200516 68 135 5.0 10.0 0.00 0.00 0.00 79 1021.7
20260830195516 68 135 5.0 10.0 0.00 0.00 0.00 78 1021.6
20260830194537 68 135 6.0 13.0 0.00 0.00 0.00 78 1021.3
20260830193516 68 135 6.0 12.0 0.00 0.00 0.00 78 1021.2
20260830192516 68 135 7.0 13.0 0.00 0.00 0.00 77
20260830191517 68 135 8.0 15.0 0.00 0.00 0.00 77
20260830190516 68 135 6.0 11.0 0.00 0.00 0.00 78
20260830185536 68 135 8.0 15.0 0.00 0.00 0.00 77
20260830184516 68 135 9.0 17.0 0.00 0.00 0.00 77
20260830183536 69 135 10.0 18.0 0.00 0.00 0.00 76
20260830182516 69 135 7.0 12.0 0.00 0.00 0.00 73
20260830181517 70 135 8.0 14.0 0.00 0.00 0.00 71
20260830180516 70 135 6.0 12.0 0.00 0.00 0.00 71
20260830175516 70 135 6.0 12.0 0.00 0.00 0.00 73
20260830174516 70 135 7.0 16.0 0.00 0.00 0.00 71
20260830173536 71 135 7.0 16.0 0.00 0.00 0.00 72
20260830172536 71 135 7.0 14.0 0.00 0.00 0.00 72
20260830171516 71 135 6.0 13.0 0.00 0.00 0.00 71
20260830170516 71 135 6.0 14.0 0.00 0.00 0.00 70
20260830165516 71 135 7.0 18.0 0.00 0.00 0.00 70
20260830164517 72 135 6.0 13.0 0.00 0.00 0.00 70
20260830163516 72 135 6.0 15.0 0.00 0.00 0.00 68
20260830162516 72 135 5.0 11.0 0.00 0.00 0.00 67 1020.3
20260830161516 72 135 7.0 11.0 0.00 0.00 0.00 68 1020.3
20260830160516 72 135 6.0 14.0 0.00 0.00 0.00 69 1020.2
20260830155516 73 135 7.0 16.0 0.00 0.00 0.00 67 1020.2
20260830154516 73 135 6.0 11.0 0.00 0.00 0.00 68 1020.3
20260830153536 73 135 6.0 11.0 0.00 0.00 0.00 68 1020.2
20260830152516 73 135 5.0 10.0 0.00 0.00 0.00 67 1020.3
20260830151515 72 135 7.0 18.0 0.00 0.00 0.00 69 1020.2
20260830150516 73 135 6.0 13.0 0.00 0.00 0.00 69 1020.2
20260830145516 73 135 7.0 12.0 0.00 0.00 0.00 68 1020.1
20260830144516 73 135 6.0 15.0 0.00 0.00 0.00 68 1020.1
20260830143516 73 135 6.0 17.0 0.00 0.00 0.00 66 1020.2
20260830142515 73 135 6.0 13.0 0.00 0.00 0.00 66 1020.0
20260830141536 73 135 5.0 14.0 0.00 0.00 0.00 67 1020.1
20260830140516 73 135 6.0 11.0 0.00 0.00 0.00 64 1020.2
20260830135516 72 135 7.0 15.0 0.00 0.00 0.00 65 1020.3
20260830134516 72 135 8.0 15.0 0.00 0.00 0.00 64 1020.4
20260830133516 73 135 7.0 14.0 0.00 0.00 0.00 65 1020.4
20260830132535 73 135 7.0 18.0 0.00 0.00 0.00 63 1020.5
20260830131557 73 135 7.0 17.0 0.00 0.00 0.00 62 1020.5
20260830130515 73 135 7.0 12.0 0.00 0.00 0.00 61 1020.4
20260830125516 73 135 7.0 15.0 0.00 0.00 0.00 59 1020.4
20260830124516 73 135 9.0 20.0 0.00 0.00 0.00 59 1020.4
20260830123536 73 135 6.0 13.0 0.00 0.00 0.00 60 1020.4
20260830122515 72 135 8.0 18.0 0.00 0.00 0.00 62 1020.4
20260830121515 73 135 6.0 12.0 0.00 0.00 0.00 63 1020.4
20260830120556 72 135 6.0 16.0 0.00 0.00 0.00 64 1020.3
20260830115515 72 135 8.0 13.0 0.00 0.00 0.00 63 1020.3
20260830114516 72 135 8.0 13.0 0.00 0.00 0.00 65 1020.3
20260830113516 72 135 7.0 13.0 0.00 0.00 0.00 66 1020.4
20260830112515 71 135 8.0 16.0 0.00 0.00 0.00 65 1020.5
20260830111516 71 135 8.0 18.0 0.00 0.00 0.00 68 1020.5
20260830110516 71 135 8.0 15.0 0.00 0.00 0.00 70 1020.4
20260830105516 71 135 7.0 17.0 0.00 0.00 0.00 70 1020.4
20260830104515 71 135 9.0 17.0 0.00 0.00 0.00 72 1020.5
20260830103516 71 135 6.0 12.0 0.00 0.00 0.00 73 1020.4
20260830102536 71 135 6.0 17.0 0.00 0.00 0.00 72 1020.4
20260830101516 70 135 7.0 12.0 0.00 0.00 0.00 75 1020.3
20260830100536 70 135 8.0 17.0 0.00 0.00 0.00 75 1020.3
20260830095516 70 135 4.0 8.0 0.00 0.00 0.00 75 1020.3
20260830094516 70 135 5.0 10.0 0.00 0.00 0.00 75 1020.4
20260830093515 69 135 7.0 12.0 0.00 0.00 0.00 75 1020.3
20260830092515 69 135 3.0 6.0 0.00 0.00 0.00 78 1020.2
20260830091516 68 135 6.0 12.0 0.00 0.00 0.00 77 1020.0
20260830090516 68 135 4.0 11.0 0.00 0.00 0.00 77 1020.1
20260830085516 68 135 4.0 9.0 0.00 0.00 0.00 77 1020.0
20260830084516 68 135 2.0 4.0 0.00 0.00 0.00 79 1019.8
20260830083516 68 135 5.0 11.0 0.00 0.00 0.00 78 1019.8
20260830082516 68 135 3.0 9.0 0.00 0.00 0.00 78 1019.6
20260830081536 69 135 5.0 12.0 0.00 0.00 0.00 78 1019.6
20260830080516 69 135 1.0 4.0 0.00 0.00 0.00 80 1019.6
20260830075516 68 135 1.0 5.0 0.00 0.00 0.00 81 1019.5
20260830074516 68 0.0 2.0 0.00 0.00 0.00 82 1019.4
20260830073515 67 135 2.0 6.0 0.00 0.00 0.00 82 1019.3
20260830072536 66 135 1.0 5.0 0.00 0.00 0.00 83 1019.1
20260830071516 66 135 2.0 5.0 0.00 0.00 0.00 83 1019.2
20260830070516 65 135 1.0 8.0 0.00 0.00 0.00 82 1019.1
20260830065515 0 0.0 0.0 0.00 0.00 0.00
20260830064516 0 0.0 0.0 0.00 0.00 0.00
20260830064023 0 0.0 0.0 0.00 0.00 0.00
20260830063540 0 0.0 0.0 0.00 0.00 0.00
20260830063016 0 0.0 0.0 0.00 0.00 0.00
20260830062036 0 0.0 0.0 0.00 0.00 0.00
20260830061524 0 0.0 0.0 0.00 0.00 0.00
20260830061041 0 0.0 0.0 0.00 0.00 0.00
20260830060516 0 0.0 0.0 0.00 0.00 0.00
20260830055517 0 0.0 0.0 0.00 0.00 0.00
20260830055044 0 0.0 0.0 0.00 0.00 0.00
20260830054541 0 0.0 0.0 0.00 0.00 0.00
20260830054018 0 0.0 0.0 0.00 0.00 0.00
20260830053018 0 0.0 0.0 0.00 0.00 0.00
20260830052523 0 0.0 0.0 0.00 0.00 0.00
20260830052040 0 0.0 0.0 0.00 0.00 0.00
20260830051517 0 0.0 0.0 0.00 0.00 0.00
20260830050518 0 0.0 0.0 0.00 0.00 0.00
20260830050023 0 0.0 0.0 0.00 0.00 0.00
20260830045600 0 0.0 0.0 0.00 0.00 0.00
20260830045017 0 0.0 0.0 0.00 0.00 0.00
20260830044016 0 0.0 0.0 0.00 0.00 0.00
20260830043524 0 0.0 0.0 0.00 0.00 0.00
20260830043041 0 0.0 0.0 0.00 0.00 0.00
20260830042017 0 0.0 0.0 0.00 0.00 0.00
20260830041054 64 0.0 0.0 0.00 0.00 0.00 81 1018.7
20260830040610 64 135 3.0 4.0 0.00 0.00 0.00 81 1018.7
20260830035515 64 135 2.0 4.0 0.00 0.00 0.00 81 1018.8
20260830034518 64 135 1.0 5.0 0.00 0.00 0.00 80 1018.7
20260830033535 63 135 1.0 5.0 0.00 0.00 0.00 80 1018.8